Location: Hylvaty SDH
(49.9612°N, 16.4057°E)
Time: 20:29:44
(UTC+02:00)

Transit 4A - Pass Details

Date: 17 August 2020
Orbit: 862 x 982 km, 66.8° (Epoch: 28 September)

Event Time Altitude Azimuth Distance (km) Brightness Sun altitude
Rises 08:31:45 0° 201° (SSW) 3,490 10.8 25.1°
Reaches altitude 10° 08:34:14 10° 198° (SSW) 2,570 10.2 25.4°
Maximum altitude 08:40:06 61° 119° (ESE) 1,040 9.3 26.4°
Drops below altitude 10° 08:46:12 10° 41° (NE) 2,670 10.8 27.3°
Sets 08:48:48 0° 38° (NE) 3,635 11.3 27.7°
